Alpena, MI

5:37 PM EDT on October 01, 2016 (GMT -0400)
Alpena County Regional

Weather History for KAPN - January, 2013

Change the Weather History Date:

Friday, January 25, 2013

  Actual Average Record
Temperature  
Mean Temperature 10 °F 18 °F  
Max Temperature 18 °F 27 °F 52 °F (1944)
Min Temperature 1 °F 11 °F -19 °F (1920)
Degree Days  
Heating Degree Days 55 46  
Month to date heating degree days 1046 1139  
Since 1 July heating degree days 3822 4200  
Moisture  
Dew Point 8 °F    
Average Humidity 79    
Maximum Humidity 88    
Minimum Humidity 69    
Precipitation  
Precipitation T in 0.05 in 0.78 in (1975)
Month to date precipitation 1.23 1.38  
Year to date precipitation 1.23 1.38  
Snow  
Snow 0.10 in 0.60 in 4.70 in (1976)
Month to date snowfall 3.2 17.3  
Since 1 July snowfall 16.9 44.6  
Snow Depth 2.00 in    
Sea Level Pressure  
Sea Level Pressure 30.14 in    
Wind  
Wind Speed 4 mph (South)    
Max Wind Speed 14 mph    
Max Gust Speed 17 mph    
Visibility 5 miles    
Events Fog , Snow    
T = Trace of Precipitation, MM = Missing Value Source: NWS Daily Summary

Daily Weather History Graph

Daily Weather History Graph

Search for Another Location

Airport or City:

Trip Planner

Search our weather history database for the weather conditions in past years. The results will help you decide how hot, cold, wet, or windy it might be!

Date:

Astronomy

Jan. 25, 2013 Rise Set
Actual Time 8:01 AM EST 5:32 PM EST
Civil Twilight 7:29 AM EST 6:04 PM EST
Nautical Twilight 6:53 AM EST 6:40 PM EST
Astronomical Twilight 6:19 AM EST 7:14 PM EST
Moon 4:28 PM EST (1/25) 6:40 AM EST (1/25)
Length of Visible Light 10h 34m
Length of Day
9h 31m
Waxing Gibbous, 98% of the Moon is Illuminated
Jan 25
Waxing Gibbous
Jan 26
Full
Feb 3
Last Quarter
Feb 10
New
Feb 17
First Quarter

Hourly Weather History & Observations

Time (EST) Temp. Windchill Dew Point Humidity Pressure Visibility Wind Dir Wind Speed Gust Speed Precip Events Conditions
12:54 AM 3.0 °F - -2.0 °F 80% 30.50 in 10.0 mi Calm Calm - N/A   Clear
1:54 AM 3.9 °F - -0.9 °F 80% 30.47 in 10.0 mi Calm Calm - N/A   Scattered Clouds
2:54 AM 5.0 °F - -0.9 °F 76% 30.44 in 10.0 mi Calm Calm - N/A   Overcast
3:54 AM 6.1 °F - -0.0 °F 76% 30.41 in 10.0 mi Calm Calm - N/A   Overcast
4:54 AM 7.0 °F 0.1 °F 1.0 °F 77% 30.38 in 10.0 mi SSE 3.5 mph - N/A   Overcast
5:54 AM 9.0 °F -0.9 °F -0.9 °F 64% 30.33 in 10.0 mi South 5.8 mph - N/A   Overcast
6:54 AM 9.0 °F -0.9 °F 3.0 °F 77% 30.31 in 3.0 mi SSW 5.8 mph - 0.00 in Snow Light Snow
7:54 AM 9.0 °F - 3.9 °F 80% 30.28 in 9.0 mi Calm Calm - 0.01 in   Overcast
8:00 AM 8.6 °F - 3.2 °F 79% 30.22 in 9.0 mi Calm Calm - N/A   Overcast
8:41 AM 8.6 °F 2.0 °F 5.0 °F 85% 30.20 in 2.5 mi SSE 3.5 mph - 0.00 in Snow Light Snow
8:54 AM 9.0 °F 2.4 °F 5.0 °F 84% 30.26 in 2.0 mi SSE 3.5 mph - 0.00 in Snow Light Snow
9:31 AM 10.4 °F 2.2 °F 6.8 °F 85% 30.18 in 1.5 mi South 4.6 mph - 0.00 in Snow Light Snow
9:54 AM 10.0 °F 1.8 °F 7.0 °F 87% 30.23 in 2.0 mi South 4.6 mph - 0.01 in Snow Light Snow
10:29 AM 10.4 °F 4.0 °F 6.8 °F 85% 30.16 in 3.0 mi South 3.5 mph - 0.00 in Snow Light Snow
10:54 AM 12.0 °F 4.1 °F 8.1 °F 84% 30.21 in 4.0 mi South 4.6 mph - 0.00 in Snow Light Snow
11:54 AM 14.0 °F 2.9 °F 8.1 °F 77% 30.16 in 10.0 mi SSE 8.1 mph - 0.01 in   Overcast
12:11 PM 14.0 °F 2.0 °F 8.6 °F 79% 30.09 in 2.5 mi South 9.2 mph - 0.00 in Snow Light Snow
12:37 PM 15.8 °F 6.1 °F 8.6 °F 73% 30.08 in 3.0 mi South 6.9 mph - 0.00 in Snow Light Snow
12:54 PM 15.1 °F 5.2 °F 9.0 °F 77% 30.12 in 3.0 mi South 6.9 mph - 0.00 in Snow Light Snow
1:01 PM 15.8 °F 5.1 °F 8.6 °F 73% 30.07 in 2.5 mi South 8.1 mph - 0.00 in Snow Light Snow
1:16 PM 15.8 °F 4.2 °F 8.6 °F 73% 30.05 in 3.0 mi South 9.2 mph - 0.00 in Snow Light Snow
1:34 PM 15.8 °F 4.2 °F 10.4 °F 79% 30.04 in 2.0 mi South 9.2 mph - 0.00 in Snow Light Snow
1:54 PM 16.0 °F 5.3 °F 10.9 °F 81% 30.08 in 2.0 mi South 8.1 mph - 0.00 in Snow Light Snow
2:00 PM 15.8 °F 3.4 °F 10.4 °F 79% 30.02 in 1.5 mi South 10.4 mph - 0.00 in Snow Light Snow
2:21 PM 17.6 °F 5.0 °F 10.4 °F 73% 30.01 in 3.0 mi SSE 11.5 mph - 0.00 in Snow Light Snow
2:54 PM 18.0 °F 5.4 °F 10.9 °F 74% 30.04 in 9.0 mi SSE 11.5 mph - 0.01 in   Overcast
3:54 PM 18.0 °F 7.7 °F 10.0 °F 71% 30.03 in 5.0 mi South 8.1 mph - 0.00 in Snow Light Snow
4:07 PM 17.6 °F 6.4 °F 10.4 °F 73% 29.99 in 2.5 mi South 9.2 mph - 0.00 in Snow Light Snow
4:33 PM 17.6 °F 6.4 °F 12.2 °F 79% 29.98 in 1.8 mi South 9.2 mph - 0.00 in Snow Light Snow
4:41 PM 17.6 °F 7.3 °F 12.2 °F 79% 29.98 in 2.5 mi South 8.1 mph - 0.00 in Snow Light Snow
4:50 PM 17.6 °F 8.2 °F 12.2 °F 79% 29.99 in 3.0 mi South 6.9 mph - 0.00 in Snow Light Snow
4:54 PM 18.0 °F 8.7 °F 12.0 °F 78% 30.03 in 3.0 mi South 6.9 mph - 0.00 in Snow Light Snow
5:09 PM 17.6 °F 9.3 °F 12.2 °F 79% 29.99 in 2.5 mi South 5.8 mph - 0.00 in Snow Light Snow
5:39 PM 17.6 °F 10.7 °F 12.2 °F 79% 29.98 in 5.0 mi South 4.6 mph - 0.00 in Snow Light Snow
5:54 PM 17.1 °F 8.7 °F 12.9 °F 84% 30.03 in 9.0 mi South 5.8 mph - 0.00 in Snow Light Snow
6:54 PM 17.1 °F 11.7 °F 12.9 °F 84% 30.04 in 7.0 mi South 3.5 mph - 0.00 in Snow Light Snow
7:54 PM 17.1 °F - 12.9 °F 84% 30.05 in 6.0 mi Calm Calm - 0.00 in Snow Light Snow
8:54 PM 17.1 °F - 12.9 °F 84% 30.05 in 4.0 mi Calm Calm - 0.00 in Snow Light Snow
9:54 PM 15.1 °F - 12.9 °F 91% 30.05 in 4.0 mi Calm Calm - 0.00 in Snow Light Snow
10:54 PM 12.0 °F - 10.0 °F 92% 30.06 in 4.0 mi Calm Calm - 0.00 in Snow Light Snow
11:39 PM 10.4 °F - 6.8 °F 85% 30.02 in 1.5 mi Calm Calm - 0.00 in   Overcast
11:47 PM 6.8 °F - 5.0 °F 92% 30.02 in 0.5 mi Calm Calm - 0.00 in Fog Light Freezing Fog
11:54 PM 7.0 °F - 5.0 °F 92% 30.06 in 0.5 mi Calm Calm - 0.00 in Fog Light Freezing Fog